CW3001 Weather Reports


Display with metric or nautical units.
time (UTC)temp
F
wind
direction
speed
MPH
gust
MPH
rain 1hr
in
rain 24hr
in
rain mn
in
humidity
%
barometer
mb
20260503230138 53 148 0.0 0.0 0.01 0.20 0.01 92 1011.6
20260503225639 53 148 0.0 0.0 0.01 0.20 0.01 93 1011.7
20260503225138 53 148 0.0 0.0 0.01 0.20 0.01 92 1011.8
20260503224636 53 148 0.0 0.0 0.01 0.20 0.01 92 1011.8
20260503224137 53 149 0.0 0.0 0.01 0.20 0.01 92 1011.9
20260503223637 53 148 0.0 0.0 0.01 0.21 0.01 92 1011.7
20260503223137 53 148 0.0 0.0 0.01 0.21 0.01 92 1011.7
20260503222642 53 149 0.0 0.0 0.01 0.22 0.01 92 1011.8
20260503222434 53 148 0.0 0.0 0.01 0.22 0.01 92 1011.8
20260503221638 54 148 0.0 0.0 0.01 0.23 0.01 92 1011.7
20260503221137 54 148 0.0 0.0 0.00 0.23 0.00 92 1011.8
20260503220637 54 148 0.0 0.0 0.00 0.24 0.00 92 1011.7
20260503220136 54 148 0.0 0.0 0.00 0.24 0.00 92 1011.8
20260503215733 54 148 0.0 0.0 0.00 0.24 0.24 92 1011.8
20260503215149 54 148 0.0 0.0 0.00 0.25 0.24 91 1011.8
20260503214955 54 149 0.0 0.0 0.00 0.26 0.24 92 1011.7
20260503214151 54 147 0.0 0.0 0.00 0.26 0.24 91 1011.6
20260503214053 55 148 0.0 0.0 0.00 0.27 0.24 92 1011.9
20260503213721 55 147 0.0 0.0 0.00 0.27 0.24 92 1011.7
20260503212713 55 142 0.0 0.0 0.00 0.28 0.24 91 1011.8
20260503212659 55 147 0.0 0.0 0.00 0.28 0.24 92 1011.9
20260503211918 55 142 0.0 0.0 0.00 0.28 0.24 91 1011.7
20260503211137 55 142 0.0 0.0 0.00 0.28 0.24 92 1011.7
20260503210634 55 142 0.0 0.0 0.00 0.29 0.24 92 1011.7
20260503210135 56 142 0.0 0.0 0.00 0.29 0.24 92 1011.6
20260503205636 56 142 0.0 0.0 0.00 0.29 0.24 92 1011.5
20260503205135 56 142 0.0 0.0 0.00 0.30 0.24 91 1011.5
20260503204648 56 142 0.0 0.0 0.00 0.30 0.24 91 1011.6
20260503204502 56 142 0.0 1.0 0.00 0.31 0.24 91 1011.6
20260503203635 56 142 0.0 3.0 0.00 0.31 0.24 91 1011.6
20260503203150 56 142 0.0 5.0 0.00 0.31 0.24 92 1011.6
20260503202635 56 142 2.0 5.0 0.00 0.32 0.24 92 1011.6
20260503202422 56 144 3.0 5.0 0.00 0.33 0.24 91 1011.6
20260503201634 56 145 4.0 5.0 0.00 0.34 0.24 91 1011.6
20260503201134 56 148 3.0 4.0 0.00 0.37 0.24 91 1011.6
20260503200634 56 148 3.0 4.0 0.00 0.37 0.24 91 1011.6
20260503200133 56 148 1.0 4.0 0.00 0.37 0.24 91 1011.6
20260503195634 56 151 2.0 4.0 0.00 0.37 0.24 91 1011.7
20260503195133 56 151 2.0 4.0 0.00 0.40 0.24 91 1011.6
20260503194634 56 154 3.0 4.0 0.00 0.40 0.24 91 1011.6
20260503194150 56 165 0.0 2.0 0.11 0.40 0.24 91 1011.6
20260503193646 56 165 0.0 2.0 0.11 0.40 0.24 91 1011.5
20260503193134 56 165 0.0 3.0 0.11 0.40 0.24 91 1011.5
20260503192913 56 165 1.0 4.0 0.11 0.40 0.24 91 1011.4
20260503192132 56 164 2.0 4.0 0.11 0.40 0.24 91 1011.4
20260503191632 56 148 2.0 5.0 0.11 0.40 0.24 91 1011.4
20260503191130 56 145 2.0 5.0 0.11 0.40 0.24 91 1011.4
20260503190736 56 161 3.0 4.0 0.11 0.40 0.24 90 1011.3
20260503190712 56 162 2.0 4.0 0.11 0.40 0.24 91 1011.2
20260503185630 56 162 0.0 0.0 0.11 0.29 0.24 90 1011.1
20260503185129 57 162 0.0 0.0 0.11 0.29 0.24 90 1011.1
20260503184914 57 162 0.0 0.0 0.11 0.29 0.24 91 1011.0
20260503184432 56 162 0.0 3.0 0.00 0.29 0.13 90 1010.9
20260503183653 56 162 0.0 3.0 0.00 0.29 0.13 90 1011.0
20260503183130 56 162 0.0 3.0 0.00 0.29 0.13 90 1011.1
20260503182632 57 165 1.0 3.0 0.00 0.29 0.13 90 1011.2
20260503182130 57 243 0.0 0.0 0.01 0.29 0.13 90 1011.2
20260503181631 56 243 0.0 0.0 0.01 0.29 0.13 89 1011.3
20260503181130 56 243 0.0 0.0 0.01 0.29 0.13 89 1011.3
20260503180631 57 243 0.0 2.0 0.01 0.29 0.13 89 1011.4
20260503180130 57 244 0.0 4.0 0.01 0.29 0.13 89 1011.4
20260503175629 57 244 2.0 6.0 0.01 0.28 0.13 89 1011.4
20260503175143 57 259 2.0 6.0 0.01 0.28 0.13 89 1011.4
20260503174630 57 320 0.0 5.0 0.01 0.28 0.13 89 1011.2
20260503174130 57 323 3.0 5.0 0.01 0.28 0.13 88 1011.4
20260503173707 58 262 4.0 9.0 0.01 0.28 0.13 87 1011.3
20260503173653 57 300 2.0 6.0 0.01 0.28 0.13 88 1011.3
20260503172633 58 219 5.0 10.0 0.01 0.28 0.13 86 1011.3
20260503172129 59 269 2.0 15.0 0.00 0.28 0.13 84 1011.3
20260503171630 60 303 5.0 15.0 0.00 0.28 0.13 83 1011.3
20260503171130 61 288 8.0 15.0 0.00 0.28 0.13 86 1011.2
20260503170629 62 213 9.0 15.0 0.00 0.28 0.13 85 1010.8
20260503170130 62 169 8.0 14.0 0.00 0.28 0.13 84 1010.7
20260503160128 62 164 6.0 14.0 0.00 0.28 0.13 85 1010.3
20260503150626 62 171 7.0 12.0 0.00 0.28 0.13 86 1010.2
20260503150413 62 162 4.0 11.0 0.00 0.28 0.13 87 1010.3
20260503140124 61 169 6.0 12.0 0.01 0.28 0.13 88 1010.9
20260503131123 61 202 6.0 10.0 0.01 0.28 0.12 89 1011.0
20260503130906 61 189 6.0 9.0 0.02 0.28 0.12 89 1011.0
20260503130124 61 204 5.0 10.0 0.02 0.28 0.12 89 1011.0
20260503120121 61 188 4.0 6.0 0.02 0.26 0.10 90 1011.1
20260503110613 60 204 3.0 6.0 0.02 0.24 0.09 89 1011.3
20260503110115 60 202 3.0 10.0 0.02 0.24 0.09 89 1011.3
20260503100110 60 237 4.0 9.0 0.01 0.22 0.06 90 1011.5
20260503090104 62 243 5.0 10.0 0.00 0.21 0.06 86 1011.2
20260503081601 61 186 4.0 9.0 0.00 0.21 0.06 88 1010.9
20260503081102 61 199 4.0 7.0 0.00 0.21 0.06 89 1011.0
20260503080602 61 188 4.0 7.0 0.00 0.21 0.06 90 1010.9
20260503072602 60 178 2.0 4.0 0.00 0.21 0.06 90 1010.6
20260503072349 60 176 2.0 4.0 0.00 0.21 0.06 90 1010.7
20260503071606 60 178 3.0 4.0 0.00 0.21 0.06 90 1010.6
20260503071102 60 173 3.0 3.0 0.00 0.21 0.06 91 1010.7
20260503070602 60 175 0.0 3.0 0.00 0.21 0.06 91 1010.5
20260503070358 60 173 2.0 5.0 0.00 0.21 0.06 91 1010.5
20260503055104 56 169 0.0 0.0 0.00 0.21 0.06 93 1010.5
20260503054602 56 169 0.0 0.0 0.00 0.21 0.06 93 1010.6
20260503054102 56 169 0.0 0.0 0.00 0.21 0.06 93 1010.5
20260503053622 56 169 0.0 0.0 0.00 0.21 0.06 93 1010.6
20260503053105 56 169 0.0 0.0 0.00 0.21 0.06 93 1010.6
20260503052846 56 169 0.0 0.0 0.00 0.21 0.06 93 1010.6
20260503052103 56 169 0.0 0.0 0.00 0.21 0.06 93 1010.5
20260503051602 55 169 0.0 0.0 0.00 0.21 0.06 92 1010.7
20260503051349 55 169 0.0 0.0 0.00 0.21 0.06 92 1010.8
20260503050601 55 169 0.0 0.0 0.00 0.21 0.06 92 1010.7
20260503045602 55 169 0.0 0.0 0.00 0.21 0.06 92 1010.8
20260503045344 55 171 0.0 3.0 0.00 0.21 0.06 92 1010.8
20260503044627 55 169 0.0 4.0 0.00 0.21 0.06 92 1010.9
20260503044101 55 173 2.0 4.0 0.00 0.21 0.06 92 1011.1
20260503043602 55 179 2.0 2.0 0.00 0.21 0.06 92 1011.0
20260503043104 55 179 1.0 3.0 0.00 0.21 0.06 92 1011.0
20260503042602 55 179 2.0 3.0 0.01 0.21 0.06 92 1011.1
20260503042343 55 179 2.0 3.0 0.01 0.21 0.06 92 1011.1
20260503041602 55 179 2.0 3.0 0.01 0.21 0.06 92 1011.1
20260503041103 55 179 0.0 0.0 0.01 0.21 0.06 92 1011.1
20260503040602 55 179 0.0 0.0 0.01 0.21 0.06 92 1011.0
20260503035602 55 179 0.0 0.0 0.01 0.20 0.06 91 1011.0
20260503035102 55 179 0.0 0.0 0.01 0.20 0.06 91 1010.9
20260503034604 55 179 0.0 0.0 0.01 0.20 0.06 92 1010.8
20260503034102 55 179 0.0 0.0 0.01 0.20 0.06 91 1010.8
20260503033602 55 179 0.0 0.0 0.01 0.20 0.06 91 1010.9
20260503033347 55 179 0.0 0.0 0.01 0.20 0.06 91 1011.0
20260503032603 55 179 0.0 0.0 0.00 0.20 0.05 91 1011.1
20260503032103 55 179 0.0 0.0 0.00 0.20 0.05 91 1011.2
20260503031604 55 179 0.0 0.0 0.00 0.20 0.05 91 1011.3
20260503031103 56 179 0.0 0.0 0.00 0.20 0.05 91 1011.3
20260503030602 56 179 0.0 0.0 0.00 0.20 0.05 91 1011.3
20260503025603 56 179 0.0 0.0 0.00 0.20 0.05 91 1011.3
20260503025102 56 179 0.0 0.0 0.00 0.20 0.05 91 1011.4
20260503024603 56 179 0.0 0.0 0.00 0.20 0.05 90 1011.4
20260503024409 56 179 0.0 0.0 0.00 0.20 0.05 91 1011.4
20260503023602 56 179 0.0 0.0 0.00 0.20 0.05 91 1011.5
20260503023344 57 179 0.0 0.0 0.00 0.20 0.05 91 1011.6
20260503022601 57 179 0.0 0.0 0.00 0.20 0.05 91 1011.7
20260503022102 57 179 0.0 1.0 0.00 0.20 0.05 91 1011.9
20260503021602 57 179 0.0 3.0 0.00 0.20 0.05 91 1011.8
20260503021111 57 178 1.0 3.0 0.00 0.20 0.05 91 1012.1
20260503020603 57 148 0.0 0.0 0.00 0.20 0.05 91 1012.0
20260503020104 57 144 0.0 0.0 0.00 0.20 0.05 90 1012.1
20260503015602 57 137 0.0 0.0 0.00 0.20 0.05 90 1012.1
20260503015119 57 131 0.0 0.0 0.00 0.20 0.05 91 1012.0
20260503014602 57 131 0.0 0.0 0.00 0.20 0.05 90 1012.0
20260503014102 57 131 0.0 0.0 0.00 0.20 0.05 90 1012.0
20260503013604 57 131 0.0 0.0 0.00 0.20 0.05 90 1012.1
20260503013102 57 131 0.0 0.0 0.00 0.20 0.05 90 1011.9
20260503012602 57 131 0.0 0.0 0.00 0.20 0.05 90 1012.0
20260503012102 57 131 0.0 1.0 0.00 0.20 0.05 90 1011.8
20260503011842 57 131 0.0 3.0 0.00 0.20 0.05 90 1011.8
20260503011102 57 131 1.0 3.0 0.00 0.20 0.05 90 1011.8
20260503010602 57 135 1.0 2.0 0.00 0.20 0.05 90 1011.8
20260503005609 58 135 0.0 4.0 0.00 0.20 0.05 90 1012.0
20260503005102 58 137 1.0 4.0 0.00 0.20 0.05 90 1012.1
20260503004602 58 144 2.0 3.0 0.00 0.20 0.05 90 1012.3
20260503004102 58 135 2.0 4.0 0.00 0.20 0.05 90 1012.3
20260503003602 58 110 1.0 4.0 0.00 0.20 0.05 90 1012.4
20260503003346 58 149 1.0 4.0 0.00 0.20 0.05 90 1012.3
20260503002603 58 135 0.0 3.0 0.00 0.20 0.05 91 1012.4
20260503002102 58 133 0.0 0.0 0.00 0.20 0.05 91 1012.4
20260503001857 58 130 0.0 0.0 0.00 0.20 0.05 91 1012.4
20260503001403 58 130 0.0 0.0 0.00 0.20 0.05 91 1012.6
20260503000602 58 130 0.0 0.0 0.00 0.20 0.05 91 1012.7
20260502235602 58 131 0.0 0.0 0.00 0.20 0.05 91 1012.7
20260502235102 58 125 0.0 0.0 0.00 0.20 0.05 90 1012.8
20260502234603 58 125 0.0 0.0 0.00 0.20 0.05 90 1012.9
20260502234113 58 124 0.0 0.0 0.01 0.20 0.05 90 1012.9
20260502233602 58 124 0.0 4.0 0.02 0.20 0.05 90 1012.9
20260502233346 58 125 0.0 4.0 0.02 0.20 0.05 90 1012.9
20260502232601 58 89 1.0 3.0 0.02 0.20 0.05 90 1013.0
20260502232101 58 73 0.0 4.0 0.03 0.20 0.05 90 1013.2
20260502231601 58 72 2.0 4.0 0.03 0.20 0.05 89 1013.2
20260502231106 58 31 0.0 2.0 0.04 0.20 0.05 89 1013.3